Year,Month,Day,Hour,Minute,Value (Times are PST for temperature in C)
2017,02,15,00,00,4.30
2017,02,15,00,01,4.30
2017,02,15,00,02,4.30
2017,02,15,00,03,4.30
2017,02,15,00,04,4.30
2017,02,15,00,05,4.30
2017,02,15,00,06,4.30
2017,02,15,00,07,4.30
2017,02,15,00,08,4.20
2017,02,15,00,09,4.20
2017,02,15,00,10,4.20
2017,02,15,00,11,4.20
2017,02,15,00,12,4.30
2017,02,15,00,13,4.30
2017,02,15,00,14,4.30
2017,02,15,00,15,4.30
2017,02,15,00,16,4.30
2017,02,15,00,17,4.30
2017,02,15,00,18,4.30
2017,02,15,00,19,4.30
2017,02,15,00,20,4.30
2017,02,15,00,21,4.30
2017,02,15,00,22,4.20
2017,02,15,00,23,4.20
2017,02,15,00,24,4.30
2017,02,15,00,25,4.30
2017,02,15,00,26,4.30
2017,02,15,00,27,4.30
2017,02,15,00,28,4.30
2017,02,15,00,29,4.30
2017,02,15,00,30,4.30
2017,02,15,00,31,4.30
2017,02,15,00,32,4.30
2017,02,15,00,33,4.30
2017,02,15,00,34,4.40
2017,02,15,00,35,4.40
2017,02,15,00,36,4.40
2017,02,15,00,37,4.40
2017,02,15,00,38,4.40
2017,02,15,00,39,4.40
2017,02,15,00,40,4.40
2017,02,15,00,41,4.30
2017,02,15,00,42,4.40
2017,02,15,00,43,4.40
2017,02,15,00,44,4.40
2017,02,15,00,45,4.40
2017,02,15,00,46,4.40
2017,02,15,00,47,4.30
2017,02,15,00,48,4.30
2017,02,15,00,49,4.30
2017,02,15,00,50,4.30
2017,02,15,00,51,4.30
2017,02,15,00,52,4.40
2017,02,15,00,53,4.40
2017,02,15,00,54,4.50
2017,02,15,00,55,4.50
2017,02,15,00,56,4.60
2017,02,15,00,57,4.70
2017,02,15,00,58,4.70
2017,02,15,00,59,4.70
2017,02,15,01,00,4.70
2017,02,15,01,01,4.70
2017,02,15,01,02,4.70
2017,02,15,01,03,4.60
2017,02,15,01,04,4.60
2017,02,15,01,05,4.60
2017,02,15,01,06,4.60
2017,02,15,01,07,4.60
2017,02,15,01,08,4.60
2017,02,15,01,09,4.60
2017,02,15,01,10,4.60
2017,02,15,01,11,4.60
2017,02,15,01,12,4.70
2017,02,15,01,13,4.70
2017,02,15,01,14,4.70
2017,02,15,01,15,4.70
2017,02,15,01,16,4.70
2017,02,15,01,17,4.60
2017,02,15,01,18,4.50
2017,02,15,01,19,4.50
2017,02,15,01,20,4.50
2017,02,15,01,21,4.50
2017,02,15,01,22,4.60
2017,02,15,01,23,4.60
2017,02,15,01,24,4.60
2017,02,15,01,25,4.60
2017,02,15,01,26,4.50
2017,02,15,01,27,4.50
2017,02,15,01,28,4.50
2017,02,15,01,29,4.40
2017,02,15,01,30,4.50
2017,02,15,01,31,4.50
2017,02,15,01,32,4.50
2017,02,15,01,33,4.50
2017,02,15,01,34,4.50
2017,02,15,01,35,4.40
2017,02,15,01,36,4.40
2017,02,15,01,37,4.40
2017,02,15,01,38,4.40
2017,02,15,01,39,4.50
2017,02,15,01,40,4.50
2017,02,15,01,41,4.50
2017,02,15,01,42,4.50
2017,02,15,01,43,4.50
2017,02,15,01,44,4.60
2017,02,15,01,45,4.60
2017,02,15,01,46,4.70
2017,02,15,01,47,4.80
2017,02,15,01,48,4.80
2017,02,15,01,49,4.80
2017,02,15,01,50,4.80
2017,02,15,01,51,4.80
2017,02,15,01,52,4.80
2017,02,15,01,53,4.80
2017,02,15,01,54,4.80
2017,02,15,01,55,4.90
2017,02,15,01,56,4.90
2017,02,15,01,57,4.90
2017,02,15,01,58,4.90
2017,02,15,01,59,4.90
2017,02,15,02,00,4.90
2017,02,15,02,01,4.90
2017,02,15,02,02,4.90
2017,02,15,02,03,4.90
2017,02,15,02,04,4.90
2017,02,15,02,05,4.90
2017,02,15,02,06,4.80
2017,02,15,02,07,4.80
2017,02,15,02,08,4.80
2017,02,15,02,09,4.80
2017,02,15,02,10,4.80
2017,02,15,02,11,4.80
2017,02,15,02,12,4.80
2017,02,15,02,13,4.70
2017,02,15,02,14,4.70
2017,02,15,02,15,4.70
2017,02,15,02,16,4.70
2017,02,15,02,17,4.70
2017,02,15,02,18,4.70
2017,02,15,02,19,4.70
2017,02,15,02,20,4.70
2017,02,15,02,21,4.70
2017,02,15,02,22,4.80
2017,02,15,02,23,4.80
2017,02,15,02,24,4.90
2017,02,15,02,25,4.90
2017,02,15,02,26,5.00
2017,02,15,02,27,4.90
2017,02,15,02,28,4.90
2017,02,15,02,29,4.90
2017,02,15,02,30,4.90
2017,02,15,02,31,4.90
2017,02,15,02,32,4.90
2017,02,15,02,33,4.90
2017,02,15,02,34,4.90
2017,02,15,02,35,4.80
2017,02,15,02,36,4.80
2017,02,15,02,37,4.80
2017,02,15,02,38,4.80
2017,02,15,02,39,4.80
2017,02,15,02,40,4.70
2017,02,15,02,41,4.70
2017,02,15,02,42,4.70
2017,02,15,02,43,4.70
2017,02,15,02,44,4.70
2017,02,15,02,45,4.70
2017,02,15,02,46,4.70
2017,02,15,02,47,4.70
2017,02,15,02,48,4.80
2017,02,15,02,49,4.80
2017,02,15,02,50,4.80
2017,02,15,02,51,4.70
2017,02,15,02,52,4.70
2017,02,15,02,53,4.60
2017,02,15,02,54,4.50
2017,02,15,02,55,4.50
2017,02,15,02,56,4.60
2017,02,15,02,57,4.60
2017,02,15,02,58,4.70
2017,02,15,02,59,4.80
2017,02,15,03,00,4.90
2017,02,15,03,01,4.90
2017,02,15,03,02,4.80
2017,02,15,03,03,4.90
2017,02,15,03,04,4.80
2017,02,15,03,05,4.80
2017,02,15,03,06,4.80
2017,02,15,03,07,4.70
2017,02,15,03,08,4.70
2017,02,15,03,09,4.70
2017,02,15,03,10,4.70
2017,02,15,03,11,4.70
2017,02,15,03,12,4.80
2017,02,15,03,13,4.80
2017,02,15,03,14,4.90
2017,02,15,03,15,4.90
2017,02,15,03,16,4.90
2017,02,15,03,17,4.90
2017,02,15,03,18,4.90
2017,02,15,03,19,5.00
2017,02,15,03,20,4.90
2017,02,15,03,21,4.90
2017,02,15,03,22,4.80
2017,02,15,03,23,4.70
2017,02,15,03,24,4.60
2017,02,15,03,25,4.60
2017,02,15,03,26,4.60
2017,02,15,03,27,4.60
2017,02,15,03,28,4.70
2017,02,15,03,29,4.70
2017,02,15,03,30,4.70
2017,02,15,03,31,4.70
2017,02,15,03,32,4.80
2017,02,15,03,33,4.80
2017,02,15,03,34,4.80
2017,02,15,03,35,4.80
2017,02,15,03,36,4.80
2017,02,15,03,37,4.80
2017,02,15,03,38,4.70
2017,02,15,03,39,4.70
2017,02,15,03,40,4.70
2017,02,15,03,41,4.80
2017,02,15,03,42,4.80
2017,02,15,03,43,4.90
2017,02,15,03,44,5.00
2017,02,15,03,45,5.00
2017,02,15,03,46,5.00
2017,02,15,03,47,5.00
2017,02,15,03,48,5.00
2017,02,15,03,49,5.10
2017,02,15,03,50,5.10
2017,02,15,03,51,5.10
2017,02,15,03,52,5.20
2017,02,15,03,53,5.20
2017,02,15,03,54,5.20
2017,02,15,03,55,5.30
2017,02,15,03,56,5.30
2017,02,15,03,57,5.40
2017,02,15,03,58,5.40
2017,02,15,03,59,5.40
2017,02,15,04,00,5.40
2017,02,15,04,01,5.40
2017,02,15,04,02,5.30
2017,02,15,04,03,5.30
2017,02,15,04,04,5.30
2017,02,15,04,05,5.40
2017,02,15,04,06,5.40
2017,02,15,04,07,5.40
2017,02,15,04,08,5.40
2017,02,15,04,09,5.40
2017,02,15,04,10,5.40
2017,02,15,04,11,5.40
2017,02,15,04,12,5.40
2017,02,15,04,13,5.40
2017,02,15,04,14,5.40
2017,02,15,04,15,5.40
2017,02,15,04,16,5.40
2017,02,15,04,17,5.40
2017,02,15,04,18,5.30
2017,02,15,04,19,5.30
2017,02,15,04,20,5.30
2017,02,15,04,21,5.30
2017,02,15,04,22,5.40
2017,02,15,04,23,5.30
2017,02,15,04,24,5.30
2017,02,15,04,25,5.30
2017,02,15,04,26,5.30
2017,02,15,04,27,5.30
2017,02,15,04,28,5.20
2017,02,15,04,29,5.10
2017,02,15,04,30,5.10
2017,02,15,04,31,5.20
2017,02,15,04,32,5.20
2017,02,15,04,33,5.20
2017,02,15,04,34,5.20
2017,02,15,04,35,5.30
2017,02,15,04,36,5.30
2017,02,15,04,37,5.30
2017,02,15,04,38,5.30
2017,02,15,04,39,5.20
2017,02,15,04,40,5.20
2017,02,15,04,41,5.20
2017,02,15,04,42,5.10
2017,02,15,04,43,5.00
2017,02,15,04,44,5.00
2017,02,15,04,45,4.80
2017,02,15,04,46,4.80
2017,02,15,04,47,4.90
2017,02,15,04,48,5.00
2017,02,15,04,49,5.00
2017,02,15,04,50,5.10
2017,02,15,04,51,5.10
2017,02,15,04,52,5.10
2017,02,15,04,53,5.00
2017,02,15,04,54,4.90
2017,02,15,04,55,4.70
2017,02,15,04,56,4.60
2017,02,15,04,57,4.50
2017,02,15,04,58,4.50
2017,02,15,04,59,4.60
2017,02,15,05,00,4.60
2017,02,15,05,01,4.60
2017,02,15,05,02,4.50
2017,02,15,05,03,4.50
2017,02,15,05,04,4.50
2017,02,15,05,05,4.50
2017,02,15,05,06,4.60
2017,02,15,05,07,4.60
2017,02,15,05,08,4.60
2017,02,15,05,09,4.60
2017,02,15,05,10,4.60
2017,02,15,05,11,4.60
2017,02,15,05,12,4.60
2017,02,15,05,13,4.70
2017,02,15,05,14,4.70
2017,02,15,05,15,4.70
2017,02,15,05,16,4.70
2017,02,15,05,17,4.70
2017,02,15,05,18,4.80
2017,02,15,05,19,4.80
2017,02,15,05,20,4.80
2017,02,15,05,21,4.80
2017,02,15,05,22,4.80
2017,02,15,05,23,4.80
2017,02,15,05,24,4.80
2017,02,15,05,25,4.70
2017,02,15,05,26,4.70
2017,02,15,05,27,4.80
2017,02,15,05,28,4.80
2017,02,15,05,29,4.80
2017,02,15,05,30,4.90
2017,02,15,05,31,4.90
2017,02,15,05,32,4.90
2017,02,15,05,33,4.90
2017,02,15,05,34,4.90
2017,02,15,05,35,4.90
2017,02,15,05,36,4.90
2017,02,15,05,37,4.90
2017,02,15,05,38,4.90
2017,02,15,05,39,4.80
2017,02,15,05,40,4.80
2017,02,15,05,41,4.70
2017,02,15,05,42,4.70
2017,02,15,05,43,4.70
2017,02,15,05,44,4.70
2017,02,15,05,45,4.70
2017,02,15,05,46,4.80
2017,02,15,05,47,4.80
2017,02,15,05,48,4.80
2017,02,15,05,49,4.90
2017,02,15,05,50,4.80
2017,02,15,05,51,4.80
2017,02,15,05,52,4.80
2017,02,15,05,53,4.70
2017,02,15,05,54,4.60
2017,02,15,05,55,4.50
2017,02,15,05,56,4.50
2017,02,15,05,57,4.50
2017,02,15,05,58,4.50
2017,02,15,05,59,4.50
2017,02,15,06,00,4.60
2017,02,15,06,01,4.60
2017,02,15,06,02,4.60
2017,02,15,06,03,4.60
2017,02,15,06,04,4.60
2017,02,15,06,05,4.50
2017,02,15,06,06,4.50
2017,02,15,06,07,4.60
2017,02,15,06,08,4.60
2017,02,15,06,09,4.70
2017,02,15,06,10,4.70
2017,02,15,06,11,4.70
2017,02,15,06,12,4.80
2017,02,15,06,13,4.80
2017,02,15,06,14,4.80
2017,02,15,06,15,4.80
2017,02,15,06,16,4.80
2017,02,15,06,17,4.80
2017,02,15,06,18,4.80
2017,02,15,06,19,4.80
2017,02,15,06,20,4.80
2017,02,15,06,21,4.80
2017,02,15,06,22,4.80
2017,02,15,06,23,4.80
2017,02,15,06,24,4.80
2017,02,15,06,25,4.80
2017,02,15,06,26,4.80
2017,02,15,06,27,4.80
2017,02,15,06,28,4.80
2017,02,15,06,29,4.80
2017,02,15,06,30,4.80
2017,02,15,06,31,4.80
2017,02,15,06,32,4.70
2017,02,15,06,33,4.70
2017,02,15,06,34,4.70
2017,02,15,06,35,4.70
2017,02,15,06,36,4.60
2017,02,15,06,37,4.70
2017,02,15,06,38,4.70
2017,02,15,06,39,4.70
2017,02,15,06,40,4.70
2017,02,15,06,41,4.60
2017,02,15,06,42,4.70
2017,02,15,06,43,4.70
2017,02,15,06,44,4.80
2017,02,15,06,45,4.90
2017,02,15,06,46,4.90
2017,02,15,06,47,4.90
2017,02,15,06,48,4.90
2017,02,15,06,49,4.90
2017,02,15,06,50,4.90
2017,02,15,06,51,4.80
2017,02,15,06,52,4.80
2017,02,15,06,53,4.80
2017,02,15,06,54,4.70
2017,02,15,06,55,4.60
2017,02,15,06,56,4.60
2017,02,15,06,57,4.60
2017,02,15,06,58,4.50
2017,02,15,06,59,4.50
2017,02,15,07,00,4.40
2017,02,15,07,01,4.40
2017,02,15,07,02,4.40
2017,02,15,07,03,4.40
2017,02,15,07,04,4.30
2017,02,15,07,05,4.30
2017,02,15,07,06,4.30
2017,02,15,07,07,4.20
2017,02,15,07,08,4.20
2017,02,15,07,09,4.30
2017,02,15,07,10,4.30
2017,02,15,07,11,4.30
2017,02,15,07,12,4.30
2017,02,15,07,13,4.20
2017,02,15,07,14,4.20
2017,02,15,07,15,4.10
2017,02,15,07,16,4.10
2017,02,15,07,17,4.10
2017,02,15,07,18,4.10
2017,02,15,07,19,4.10
2017,02,15,07,20,4.20
2017,02,15,07,21,4.20
2017,02,15,07,22,4.20
2017,02,15,07,23,4.20
2017,02,15,07,24,4.20
2017,02,15,07,25,4.20
2017,02,15,07,26,4.30
2017,02,15,07,27,4.30
2017,02,15,07,28,4.30
2017,02,15,07,29,4.20
2017,02,15,07,30,4.20
2017,02,15,07,31,4.20
2017,02,15,07,32,4.20
2017,02,15,07,33,4.20
2017,02,15,07,34,4.20
2017,02,15,07,35,4.20
2017,02,15,07,36,4.20
2017,02,15,07,37,4.30
2017,02,15,07,38,4.20
2017,02,15,07,39,4.10
2017,02,15,07,40,4.00
2017,02,15,07,41,3.90
2017,02,15,07,42,3.90
2017,02,15,07,43,3.90
2017,02,15,07,44,3.80
2017,02,15,07,45,3.80
2017,02,15,07,46,3.80
2017,02,15,07,47,3.80
2017,02,15,07,48,3.80
2017,02,15,07,49,3.90
2017,02,15,07,50,3.90
2017,02,15,07,51,3.90
2017,02,15,07,52,3.90
2017,02,15,07,53,3.90
2017,02,15,07,54,4.00
2017,02,15,07,55,3.90
2017,02,15,07,56,4.00
2017,02,15,07,57,4.00
2017,02,15,07,58,4.00
2017,02,15,07,59,4.00
2017,02,15,08,00,3.90
2017,02,15,08,01,3.90
2017,02,15,08,02,3.90
2017,02,15,08,03,3.90
2017,02,15,08,04,3.90
2017,02,15,08,05,3.80
2017,02,15,08,06,3.80
2017,02,15,08,07,3.80
2017,02,15,08,08,3.80
2017,02,15,08,09,3.80
2017,02,15,08,10,3.80
2017,02,15,08,11,3.80
2017,02,15,08,12,3.80
2017,02,15,08,13,3.80
2017,02,15,08,14,3.80
2017,02,15,08,15,3.90
2017,02,15,08,16,3.90
2017,02,15,08,17,3.90
2017,02,15,08,18,3.90
2017,02,15,08,19,3.90
2017,02,15,08,20,3.90
2017,02,15,08,21,3.90
2017,02,15,08,22,4.00
2017,02,15,08,23,4.00
2017,02,15,08,24,4.00
2017,02,15,08,25,4.10
2017,02,15,08,26,4.10
2017,02,15,08,27,4.10
2017,02,15,08,28,4.10
2017,02,15,08,29,4.10
2017,02,15,08,30,4.10
2017,02,15,08,31,4.00
2017,02,15,08,32,3.90
2017,02,15,08,33,3.90
2017,02,15,08,34,3.90
2017,02,15,08,35,3.90
2017,02,15,08,36,3.90
2017,02,15,08,37,3.90
2017,02,15,08,38,3.90
2017,02,15,08,39,3.90
2017,02,15,08,40,3.90
2017,02,15,08,41,3.90
2017,02,15,08,42,3.90
2017,02,15,08,43,3.90
2017,02,15,09,00,4.10
2017,02,15,09,01,4.10
2017,02,15,09,02,4.10
2017,02,15,09,03,4.10
2017,02,15,09,04,4.10
2017,02,15,09,05,4.10
2017,02,15,09,06,4.10
2017,02,15,09,07,4.10
2017,02,15,09,08,4.20
2017,02,15,09,09,4.20
2017,02,15,09,10,4.20
2017,02,15,09,11,4.20
2017,02,15,09,12,4.30
2017,02,15,09,13,4.30
2017,02,15,09,14,4.30
2017,02,15,09,15,4.30
2017,02,15,09,16,4.30
2017,02,15,09,17,4.30
2017,02,15,09,18,4.30
2017,02,15,09,19,4.30
2017,02,15,09,20,4.30
2017,02,15,09,21,4.30
2017,02,15,09,22,4.30
2017,02,15,09,23,4.30
2017,02,15,09,24,4.30
2017,02,15,09,25,4.20
2017,02,15,09,26,4.20
2017,02,15,09,27,4.20
2017,02,15,09,28,4.30
2017,02,15,09,29,4.30
2017,02,15,09,30,4.30
2017,02,15,09,31,4.30
2017,02,15,09,32,4.30
2017,02,15,09,33,4.30
2017,02,15,09,34,4.40
2017,02,15,09,35,4.40
2017,02,15,09,36,4.40
2017,02,15,09,37,4.50
2017,02,15,09,38,4.50
2017,02,15,09,39,4.50
2017,02,15,09,40,4.50
2017,02,15,09,41,4.50
2017,02,15,09,42,4.50
2017,02,15,09,43,4.50
2017,02,15,09,44,4.50
2017,02,15,09,45,4.50
2017,02,15,09,46,4.50
2017,02,15,09,47,4.50
2017,02,15,09,48,4.60
2017,02,15,09,49,4.60
2017,02,15,09,50,4.60
2017,02,15,09,51,4.70
2017,02,15,09,52,4.80
2017,02,15,09,53,4.90
2017,02,15,09,54,5.00
2017,02,15,09,55,5.10
2017,02,15,09,56,5.10
2017,02,15,09,57,5.20
2017,02,15,09,58,5.20
2017,02,15,09,59,5.20
2017,02,15,10,00,5.30
2017,02,15,10,01,5.30
2017,02,15,10,02,5.30
2017,02,15,10,03,5.30
2017,02,15,10,04,5.30
2017,02,15,10,05,5.30
2017,02,15,10,06,5.30
2017,02,15,10,07,5.30
2017,02,15,10,08,5.30
2017,02,15,10,09,5.40
2017,02,15,10,10,5.40
2017,02,15,10,11,5.40
2017,02,15,10,12,5.40
2017,02,15,10,13,5.40
2017,02,15,10,14,5.40
2017,02,15,10,15,5.40
2017,02,15,10,16,5.50
2017,02,15,10,17,5.50
2017,02,15,10,18,5.60
2017,02,15,10,19,5.60
2017,02,15,10,20,5.70
2017,02,15,10,21,5.70
2017,02,15,10,22,5.80
2017,02,15,10,23,5.90
2017,02,15,10,24,5.90
2017,02,15,10,25,5.90
2017,02,15,10,26,6.00
2017,02,15,10,27,6.00
2017,02,15,10,28,5.90
2017,02,15,10,29,5.90
2017,02,15,10,30,5.90
2017,02,15,10,31,5.90
2017,02,15,10,32,5.90
2017,02,15,10,33,5.90
2017,02,15,10,34,6.00
2017,02,15,10,35,6.00
2017,02,15,10,36,6.00
2017,02,15,10,37,5.80
2017,02,15,10,38,5.80
2017,02,15,10,39,5.80
2017,02,15,10,40,5.80
2017,02,15,10,41,5.70
2017,02,15,10,42,5.80
2017,02,15,10,43,5.80
2017,02,15,10,44,5.80
2017,02,15,10,45,5.90
2017,02,15,10,46,5.90
2017,02,15,10,47,5.90
2017,02,15,10,48,5.80
2017,02,15,10,49,5.90
2017,02,15,10,50,5.90
2017,02,15,10,51,5.90
2017,02,15,10,52,6.00
2017,02,15,10,53,6.10
2017,02,15,10,54,6.10
2017,02,15,10,55,6.30
2017,02,15,10,56,6.30
2017,02,15,10,57,6.30
2017,02,15,10,58,6.30
2017,02,15,10,59,6.30
2017,02,15,11,00,6.20
2017,02,15,11,01,6.10
2017,02,15,11,02,6.00
2017,02,15,11,03,6.00
2017,02,15,11,04,6.00
2017,02,15,11,05,6.00
2017,02,15,11,06,5.90
2017,02,15,11,07,5.90
2017,02,15,11,08,6.00
2017,02,15,11,09,6.00
2017,02,15,11,10,6.10
2017,02,15,11,11,6.10
2017,02,15,11,12,6.10
2017,02,15,11,13,6.10
2017,02,15,11,14,6.10
2017,02,15,11,15,6.10
2017,02,15,11,16,6.10
2017,02,15,11,17,6.10
2017,02,15,11,18,6.10
2017,02,15,11,19,6.10
2017,02,15,11,20,6.10
2017,02,15,11,21,6.10
2017,02,15,11,22,6.10
2017,02,15,11,23,6.10
2017,02,15,11,24,6.10
2017,02,15,11,25,6.10
2017,02,15,13,40,6.60
2017,02,15,13,41,6.60
2017,02,15,13,42,6.60
2017,02,15,13,43,6.60
2017,02,15,13,44,6.60
2017,02,15,13,45,6.60
2017,02,15,13,46,6.60
2017,02,15,13,47,6.60
2017,02,15,13,48,6.60
2017,02,15,13,49,6.60
2017,02,15,13,50,6.60
2017,02,15,13,51,6.50
2017,02,15,13,52,6.50
2017,02,15,13,53,6.50
2017,02,15,13,54,6.50
2017,02,15,13,55,6.50
2017,02,15,13,56,6.60
2017,02,15,13,57,6.60
2017,02,15,13,58,6.70
2017,02,15,13,59,6.70
2017,02,15,14,00,6.70
2017,02,15,14,01,6.70
2017,02,15,14,02,6.70
2017,02,15,14,03,6.70
2017,02,15,14,04,6.70
2017,02,15,14,05,6.70
2017,02,15,14,06,6.70
2017,02,15,14,07,6.70
2017,02,15,14,08,6.80
2017,02,15,14,09,6.80
2017,02,15,14,10,6.90
2017,02,15,14,11,6.90
2017,02,15,14,12,6.90
2017,02,15,14,13,6.90
2017,02,15,14,14,6.90
2017,02,15,14,15,6.90
2017,02,15,14,16,6.90
2017,02,15,14,17,6.90
2017,02,15,14,18,6.80
2017,02,15,14,19,6.80
2017,02,15,14,20,6.80
2017,02,15,14,21,6.70
2017,02,15,14,22,6.70
2017,02,15,14,23,6.70
2017,02,15,14,24,6.70
2017,02,15,14,25,6.70
2017,02,15,14,26,6.70
2017,02,15,14,27,6.70
2017,02,15,14,28,6.70
2017,02,15,14,29,6.70
2017,02,15,14,30,6.70
2017,02,15,14,31,6.60
2017,02,15,14,32,6.60
2017,02,15,14,33,6.60
2017,02,15,14,34,6.60
2017,02,15,14,35,6.60
2017,02,15,14,36,6.70
2017,02,15,14,37,6.70
2017,02,15,14,38,6.70
2017,02,15,14,39,6.60
2017,02,15,14,40,6.60
2017,02,15,14,41,6.60
2017,02,15,14,42,6.60
2017,02,15,14,43,6.70
2017,02,15,14,44,6.70
2017,02,15,14,45,6.70
2017,02,15,14,46,6.70
2017,02,15,14,47,6.70
2017,02,15,14,48,6.70
2017,02,15,14,49,6.70
2017,02,15,14,50,6.70
2017,02,15,14,51,6.80
2017,02,15,14,52,6.80
2017,02,15,14,53,6.80
2017,02,15,14,54,6.80
2017,02,15,14,55,6.80
2017,02,15,14,56,6.90
2017,02,15,14,57,6.90
2017,02,15,14,58,6.90
2017,02,15,14,59,6.90
2017,02,15,15,00,6.90
2017,02,15,15,01,7.00
2017,02,15,15,02,7.00
2017,02,15,15,03,7.00
2017,02,15,15,04,7.00
2017,02,15,15,05,7.00
2017,02,15,15,06,7.00
2017,02,15,15,07,7.00
2017,02,15,15,08,6.90
2017,02,15,15,09,6.90
2017,02,15,15,10,6.90
2017,02,15,15,11,6.90
2017,02,15,15,12,6.80
2017,02,15,15,13,6.80
2017,02,15,15,14,6.80
2017,02,15,15,15,6.80
2017,02,15,15,16,6.80
2017,02,15,15,17,6.80
2017,02,15,15,18,6.80
2017,02,15,15,19,6.90
2017,02,15,15,20,6.90
2017,02,15,15,21,6.80
2017,02,15,15,22,6.80
2017,02,15,15,23,6.80
2017,02,15,15,24,6.80
2017,02,15,15,25,6.90
2017,02,15,15,26,6.90
2017,02,15,15,27,6.90
2017,02,15,15,28,6.80
2017,02,15,15,29,6.80
2017,02,15,15,30,6.80
2017,02,15,15,31,6.70
2017,02,15,15,32,6.80
2017,02,15,15,33,6.80
2017,02,15,15,34,6.80
2017,02,15,15,35,6.80
2017,02,15,15,36,6.80
2017,02,15,15,37,6.80
2017,02,15,15,38,6.80
2017,02,15,15,39,6.80
2017,02,15,15,40,6.80
2017,02,15,15,41,6.90
2017,02,15,15,42,6.90
2017,02,15,15,43,6.90
2017,02,15,15,44,6.80
2017,02,15,15,45,6.80
2017,02,15,15,46,6.80
2017,02,15,15,47,6.80
2017,02,15,15,48,6.80
2017,02,15,15,49,6.80
2017,02,15,15,50,6.80
2017,02,15,15,51,6.90
2017,02,15,15,52,6.90
2017,02,15,15,53,6.90
2017,02,15,15,54,6.90
2017,02,15,15,55,7.00
2017,02,15,15,56,7.00
2017,02,15,15,57,6.90
2017,02,15,15,58,7.00
2017,02,15,15,59,7.00
2017,02,15,16,00,7.10
2017,02,15,16,01,7.10
2017,02,15,16,02,7.10
2017,02,15,16,03,7.10
2017,02,15,16,04,7.10
2017,02,15,16,05,7.10
2017,02,15,16,06,7.20
2017,02,15,16,07,7.20
2017,02,15,16,08,7.20
2017,02,15,16,09,7.20
2017,02,15,16,10,7.20
2017,02,15,16,11,7.20
2017,02,15,16,12,7.10
2017,02,15,16,13,7.10
2017,02,15,16,14,7.10
2017,02,15,16,15,7.00
2017,02,15,16,16,7.00
2017,02,15,16,17,6.90
2017,02,15,16,18,6.90
2017,02,15,16,19,6.90
2017,02,15,16,20,6.90
2017,02,15,16,21,6.90
2017,02,15,16,22,7.00
2017,02,15,16,23,7.00
2017,02,15,16,24,6.90
2017,02,15,16,25,6.90
2017,02,15,16,26,6.90
2017,02,15,16,27,6.90
2017,02,15,16,28,6.90
2017,02,15,16,29,6.90
2017,02,15,16,30,6.90
2017,02,15,16,31,6.90
2017,02,15,16,32,6.90
2017,02,15,16,33,6.90
2017,02,15,16,34,6.90
2017,02,15,16,35,6.90
2017,02,15,16,36,6.90
2017,02,15,16,37,6.90
2017,02,15,16,38,6.90
2017,02,15,16,39,6.80
2017,02,15,16,40,6.90
2017,02,15,16,41,6.90
2017,02,15,16,42,7.00
2017,02,15,16,43,7.10
2017,02,15,16,44,7.10
2017,02,15,16,45,7.10
2017,02,15,16,46,7.10
2017,02,15,16,47,7.10
2017,02,15,16,48,7.10
2017,02,15,16,49,7.10
2017,02,15,16,50,7.10
2017,02,15,16,51,7.00
2017,02,15,16,52,7.00
2017,02,15,16,53,7.00
2017,02,15,16,54,7.00
2017,02,15,16,55,7.00
2017,02,15,16,56,6.90
2017,02,15,16,57,7.00
2017,02,15,16,58,7.00
2017,02,15,16,59,7.00
2017,02,15,17,00,7.00
2017,02,15,17,01,7.00
2017,02,15,17,02,7.00
2017,02,15,17,03,6.90
2017,02,15,17,04,6.90
2017,02,15,17,05,6.90
2017,02,15,17,06,6.90
2017,02,15,17,07,6.90
2017,02,15,17,08,6.90
2017,02,15,17,09,6.90
2017,02,15,17,10,6.90
2017,02,15,17,11,6.90
2017,02,15,17,12,7.00
2017,02,15,17,13,7.00
2017,02,15,17,14,7.00
2017,02,15,17,15,6.90
2017,02,15,17,16,6.90
2017,02,15,17,17,6.80
2017,02,15,17,18,6.80
2017,02,15,17,19,6.80
2017,02,15,17,20,6.80
2017,02,15,17,21,6.80
2017,02,15,17,22,6.80
2017,02,15,17,23,6.80
2017,02,15,17,24,6.80
2017,02,15,17,25,6.80
2017,02,15,17,26,6.90
2017,02,15,17,27,6.90
2017,02,15,17,28,7.00
2017,02,15,17,29,7.00
2017,02,15,17,30,7.00
2017,02,15,17,31,7.00
2017,02,15,17,32,7.00
2017,02,15,17,33,7.00
2017,02,15,17,34,7.00
2017,02,15,17,35,7.10
2017,02,15,17,36,7.10
2017,02,15,17,37,7.10
2017,02,15,17,38,7.10
2017,02,15,17,39,7.00
2017,02,15,17,40,6.90
2017,02,15,17,41,6.90
2017,02,15,17,42,6.90
2017,02,15,17,43,6.90
2017,02,15,17,44,6.90
2017,02,15,17,45,6.90
2017,02,15,17,46,6.90
2017,02,15,17,47,6.90
2017,02,15,17,48,6.80
2017,02,15,17,49,6.80
2017,02,15,17,50,6.80
2017,02,15,17,51,6.80
2017,02,15,17,52,6.80
2017,02,15,17,53,6.80
2017,02,15,17,54,6.90
2017,02,15,17,55,6.90
2017,02,15,17,56,6.90
2017,02,15,17,57,6.90
2017,02,15,17,58,6.90
2017,02,15,17,59,6.90
2017,02,15,18,00,6.90
2017,02,15,18,01,6.90
2017,02,15,18,02,6.90
2017,02,15,18,03,6.90
2017,02,15,18,04,6.90
2017,02,15,18,05,6.90
2017,02,15,18,06,6.80
2017,02,15,18,07,6.90
2017,02,15,18,08,6.90
2017,02,15,18,09,6.90
2017,02,15,18,10,6.90
2017,02,15,18,11,6.90
2017,02,15,18,12,6.90
2017,02,15,18,13,6.90
2017,02,15,18,14,6.90
2017,02,15,18,15,6.90
2017,02,15,18,16,6.90
2017,02,15,18,17,6.90
2017,02,15,18,18,6.90
2017,02,15,18,19,6.90
2017,02,15,18,20,6.90
2017,02,15,18,21,6.90
2017,02,15,18,22,6.90
2017,02,15,18,23,6.90
2017,02,15,18,24,6.90
2017,02,15,18,25,6.90
2017,02,15,18,26,6.90
2017,02,15,18,27,6.80
2017,02,15,18,28,6.80
2017,02,15,18,29,6.80
2017,02,15,18,30,6.80
2017,02,15,18,31,6.80
2017,02,15,18,32,6.80
2017,02,15,18,33,6.90
2017,02,15,18,34,6.90
2017,02,15,18,35,6.90
2017,02,15,18,36,7.00
2017,02,15,18,37,7.10
2017,02,15,18,38,7.10
2017,02,15,18,39,7.20
2017,02,15,18,40,7.20
2017,02,15,18,41,7.20
2017,02,15,18,42,7.20
2017,02,15,18,43,7.20
2017,02,15,18,44,7.20
2017,02,15,18,45,7.20
2017,02,15,18,46,7.20
2017,02,15,18,47,7.20
2017,02,15,18,48,7.20
2017,02,15,18,49,7.20
2017,02,15,18,50,7.20
2017,02,15,18,51,7.20
2017,02,15,18,52,7.20
2017,02,15,18,53,7.20
2017,02,15,18,54,7.20
2017,02,15,18,55,7.20
2017,02,15,18,56,7.20
2017,02,15,18,57,7.20
2017,02,15,18,58,7.20
2017,02,15,18,59,7.20
2017,02,15,19,00,7.20
2017,02,15,19,01,7.20
2017,02,15,19,02,7.10
2017,02,15,19,03,7.10
2017,02,15,19,04,7.00
2017,02,15,19,05,7.10
2017,02,15,19,06,7.10
2017,02,15,19,07,7.10
2017,02,15,19,08,7.10
2017,02,15,19,09,7.10
2017,02,15,19,10,7.10
2017,02,15,19,11,7.10
2017,02,15,19,12,7.20
2017,02,15,19,13,7.20
2017,02,15,19,14,7.20
2017,02,15,19,15,7.20
2017,02,15,19,16,7.20
2017,02,15,19,17,7.20
2017,02,15,19,18,7.30
2017,02,15,19,19,7.30
2017,02,15,19,20,7.30
2017,02,15,19,21,7.40
2017,02,15,19,22,7.40
2017,02,15,19,23,7.40
2017,02,15,19,24,7.30
2017,02,15,19,25,7.30
2017,02,15,19,26,7.20
2017,02,15,19,27,7.20
2017,02,15,19,28,7.20
2017,02,15,19,29,7.20
2017,02,15,19,30,7.10
2017,02,15,19,31,7.10
2017,02,15,19,32,7.10
2017,02,15,19,33,7.10
2017,02,15,19,34,7.20
2017,02,15,19,35,7.20
2017,02,15,19,36,7.20
2017,02,15,19,37,7.20
2017,02,15,19,38,7.20
2017,02,15,19,39,7.20
2017,02,15,19,40,7.20
2017,02,15,19,41,7.20
2017,02,15,19,42,7.20
2017,02,15,19,43,7.20
2017,02,15,19,44,7.10
2017,02,15,19,45,7.20
2017,02,15,19,46,7.20
2017,02,15,19,47,7.20
2017,02,15,19,48,7.20
2017,02,15,19,49,7.10
2017,02,15,19,50,6.80
2017,02,15,19,51,6.80
2017,02,15,19,52,6.70
2017,02,15,19,53,6.80
2017,02,15,19,54,6.90
2017,02,15,19,55,7.00
2017,02,15,19,56,7.10
2017,02,15,19,57,7.20
2017,02,15,19,58,7.20
2017,02,15,19,59,7.30
2017,02,15,20,00,7.40
2017,02,15,20,01,7.40
2017,02,15,20,02,7.40
2017,02,15,20,03,7.40
2017,02,15,20,04,7.40
2017,02,15,20,05,7.40
2017,02,15,20,06,7.50
2017,02,15,20,07,7.50
2017,02,15,20,08,7.50
2017,02,15,20,09,7.60
2017,02,15,20,10,7.50
2017,02,15,20,11,7.50
2017,02,15,20,12,7.40
2017,02,15,20,13,7.40
2017,02,15,20,14,7.40
2017,02,15,20,15,7.30
2017,02,15,20,16,7.30
2017,02,15,20,17,7.30
2017,02,15,20,18,7.20
2017,02,15,20,19,7.20
2017,02,15,20,20,7.20
2017,02,15,20,21,7.20
2017,02,15,20,22,7.20
2017,02,15,20,23,7.20
2017,02,15,20,24,7.20
2017,02,15,20,25,7.20
2017,02,15,20,26,7.20
2017,02,15,20,27,7.20
2017,02,15,20,28,7.20
2017,02,15,20,29,7.20
2017,02,15,20,30,7.20
2017,02,15,20,31,7.10
2017,02,15,20,32,7.00
2017,02,15,20,33,7.10
2017,02,15,20,34,7.20
2017,02,15,20,35,7.20
2017,02,15,20,36,7.20